Home > Weather > Amadora > Past weeks

Flag for Portugal Past Weather in Amadora, Portugal — Yesterday and Last 2 Weeks

Now
66 °F

Passing clouds.


Feels Like: 66 °F
Forecast: 63 / 80 °F
Wind: 12 mph from North

Location: Lisbon Portela Airport

Current Time: Aug 28, 2016 at 11:48:49 PM

Latest Report: Aug 28, 2016 at 11:00 PM


Visibility: N/A

Pressure: 30.21 "Hg

Humidity: 64%

Dew Point: 54 °F

Location of AmadoraLocation

Past Weather in Amadora — Graph

°F

Amadora Temperature Yesterday

Maximum temperature yesterday: 88 °F (at 2:30 PM)
Minimum temperature yesterday: 64 °F (at 4:30 AM)
Average temperature yesterday: 73 °F

High & Low Weather Summary for the Past Weeks

 TemperatureHumidityPressure
High93 °F (Aug 23, 2:00 PM)100% (Aug 19, 7:30 AM)30.21 "Hg (Aug 19, 7:30 AM)
Low63 °F (Aug 15, 2:30 AM)24% (Aug 22, 3:00 PM)29.89 "Hg (Aug 24, 8:00 PM)
Average73 °F64%30.02 "Hg
* Reported Aug 13 10:00 PM — Aug 28 10:30 PM, Amadora, Weather by CustomWeather, © 2016

Note: Actual official high and low records may vary slightly from our data, if they occured in-between our weather recording intervals... More about our weather records

Advertising

Amadora Weather History for the Previous 24 Hours

Scroll right to see more
 ConditionsComfort  
Time TempWeatherWind HumidityBarometerVisibility
10:30 PM
Sun, Aug 28
66 °FPassing clouds.10 mph64%30.21 "HgN/A
10:00 PM66 °FClear.18 mph64%30.18 "Hg10 mi
9:30 PM68 °FClear.16 mph64%30.18 "Hg10 mi
9:00 PM68 °FSunny.20 mph69%30.18 "Hg10 mi
8:30 PM70 °FSunny.15 mph64%30.15 "Hg10 mi
8:00 PM72 °FPassing clouds.17 mph65%30.15 "HgN/A
7:30 PM73 °FPassing clouds.18 mph61%30.15 "HgN/A
7:00 PM75 °FPassing clouds.21 mph61%30.15 "HgN/A
6:30 PM75 °FPassing clouds.22 mph61%30.15 "HgN/A
6:00 PM77 °FPassing clouds.18 mph57%30.15 "HgN/A
5:30 PM79 °FPassing clouds.17 mph54%30.15 "HgN/A
5:00 PM81 °FPassing clouds.18 mph51%30.15 "HgN/A
4:30 PM82 °FPassing clouds.15 mph48%30.15 "HgN/A
4:00 PM84 °FPassing clouds.17 mph45%30.15 "HgN/A
3:30 PM82 °FPassing clouds.18 mph48%30.15 "HgN/A
3:00 PM84 °FPassing clouds.16 mph48%30.15 "HgN/A
2:30 PM81 °FPassing clouds.15 mph54%30.15 "HgN/A
2:00 PM81 °FPassing clouds.13 mph54%30.15 "HgN/A
1:30 PM81 °FPassing clouds.17 mph54%30.15 "HgN/A
1:00 PM79 °FPassing clouds.16 mph58%30.15 "HgN/A
12:30 PM77 °FPassing clouds.14 mph61%30.18 "HgN/A
12:00 PM75 °FPassing clouds.18 mph65%30.18 "HgN/A
11:30 AM75 °FPassing clouds.16 mph65%30.18 "HgN/A
11:00 AM73 °FPassing clouds.10 mph69%30.18 "HgN/A
10:30 AM72 °FPassing clouds.12 mph73%30.18 "HgN/A
10:00 AM70 °FPassing clouds.8 mph78%30.15 "HgN/A
9:30 AM70 °FPassing clouds.10 mph78%30.15 "HgN/A
9:00 AM68 °FPassing clouds.14 mph78%30.15 "HgN/A
8:30 AM66 °FPassing clouds.14 mph83%30.12 "HgN/A
8:00 AM64 °FPassing clouds.7 mph83%30.12 "HgN/A
7:30 AM64 °FPassing clouds.16 mph83%30.09 "HgN/A
7:00 AM64 °FClear.13 mph83%30.09 "Hg10 mi
6:30 AM64 °FClear.14 mph78%30.09 "Hg10 mi
6:00 AM64 °FClear.13 mph78%30.09 "Hg10 mi
5:30 AM64 °FClear.10 mph78%30.09 "Hg10 mi
5:00 AM64 °FClear.10 mph78%30.09 "Hg10 mi
4:30 AM63 °FClear.9 mph83%30.09 "Hg10 mi
4:00 AM64 °FPassing clouds.9 mph73%30.09 "HgN/A
3:30 AM64 °FClear.10 mph68%30.09 "Hg10 mi
3:00 AM64 °FPassing clouds.9 mph68%30.09 "HgN/A
2:30 AM64 °FPassing clouds.5 mph60%30.09 "HgN/A
2:00 AM64 °FPassing clouds.3 mph60%30.09 "HgN/A
1:30 AM64 °FPassing clouds.7 mph60%30.09 "HgN/A
1:00 AM66 °FPassing clouds.6 mph64%30.09 "HgN/A
12:30 AM66 °FClear.9 mph60%30.09 "Hg10 mi
12:00 AM68 °FClear.10 mph56%30.09 "Hg10 mi
11:30 PM
Sat, Aug 27
68 °FPassing clouds.8 mph60%30.09 "HgN/A
11:00 PM68 °FPassing clouds.9 mph60%30.09 "HgN/A
Weather by CustomWeather, © 2016

See weather overviewHow to use our weather pages